RYR821 EIDW-EGCC

Flight info

Callsign RYR821
Flight time N/A
Altitude 21000
Route BOFUM Q37 MALUD
Aircraft B738/M-V/N

Departure

Time 2026-05-07 16:51
Airport Dublin Airport (EIDW)

Arrival

Time N/A
Airport Manchester Airport (EGCC)
Time Latitude Longitude Altitude Speed Heading
2026-05-07 16:36 53.43002 -6.24877 251 ft 0 kts
2026-05-07 16:41 53.42992 -6.24879 251 ft 2 kts
2026-05-07 16:41 53.42983 -6.24880 251 ft 1 kts
2026-05-07 16:41 53.42968 -6.24879 251 ft 2 kts 340°
2026-05-07 16:41 53.42955 -6.24867 251 ft 2 kts 318°
2026-05-07 16:42 53.42946 -6.24848 251 ft 2 kts 295°
2026-05-07 16:42 53.42943 -6.24831 251 ft 0 kts 278°
2026-05-07 16:42 53.42943 -6.24822 251 ft 1 kts 274°
2026-05-07 16:42 53.42942 -6.24819 251 ft 0 kts 274°
2026-05-07 16:44 53.42943 -6.24836 251 ft 5 kts 274°
2026-05-07 16:44 53.42950 -6.24953 251 ft 14 kts 276°
2026-05-07 16:44 53.42961 -6.25166 251 ft 19 kts 272°
2026-05-07 16:44 53.42960 -6.25333 251 ft 13 kts 305°
2026-05-07 16:45 53.43046 -6.25423 251 ft 16 kts 335°
2026-05-07 16:45 53.43161 -6.25508 251 ft 19 kts 336°
2026-05-07 16:45 53.43290 -6.25601 251 ft 18 kts 336°
2026-05-07 16:45 53.43395 -6.25581 251 ft 16 kts 63°
2026-05-07 16:46 53.43395 -6.25380 251 ft 18 kts 96°
2026-05-07 16:46 53.43382 -6.25145 251 ft 21 kts 95°
2026-05-07 16:46 53.43367 -6.24879 251 ft 24 kts 95°
2026-05-07 16:46 53.43350 -6.24578 251 ft 25 kts 94°
2026-05-07 16:47 53.43335 -6.24319 251 ft 22 kts 96°
2026-05-07 16:47 53.43323 -6.24075 251 ft 16 kts 96°
2026-05-07 16:47 53.43320 -6.23927 251 ft 13 kts 76°
2026-05-07 16:47 53.43343 -6.23876 251 ft 4 kts 26°
2026-05-07 16:48 53.43380 -6.23855 251 ft 0 kts
2026-05-07 16:49 53.43415 -6.23849 251 ft 9 kts
2026-05-07 16:50 53.43476 -6.23884 251 ft 9 kts 304°
2026-05-07 16:50 53.43498 -6.24125 251 ft 49 kts 275°
2026-05-07 16:50 53.43554 -6.25143 251 ft 124 kts 275°
2026-05-07 16:50 53.43653 -6.26904 449 ft 166 kts 275°
2026-05-07 16:51 53.43777 -6.28771 1330 ft 156 kts 270°
2026-05-07 16:51 53.43871 -6.30519 1995 ft 163 kts 285°
2026-05-07 16:51 53.44622 -6.32074 2327 ft 192 kts 330°
2026-05-07 16:51 53.45981 -6.32466 2844 ft 206 kts 356°
2026-05-07 16:52 53.47419 -6.32733 3484 ft 216 kts 346°
2026-05-07 16:52 53.48859 -6.33334 4309 ft 217 kts 341°
2026-05-07 16:52 53.50398 -6.33760 4896 ft 231 kts 359°
2026-05-07 16:52 53.51950 -6.33146 4986 ft 233 kts 27°
2026-05-07 16:53 53.53142 -6.31404 4987 ft 227 kts 58°
2026-05-07 16:53 53.53626 -6.28908 5014 ft 225 kts 86°
2026-05-07 16:53 53.53622 -6.26287 4997 ft 218 kts 99°
2026-05-07 16:53 53.53412 -6.23808 4987 ft 221 kts 103°
2026-05-07 16:54 53.53133 -6.21239 4995 ft 220 kts 103°
2026-05-07 16:54 53.52853 -6.18695 4947 ft 231 kts 104°
2026-05-07 16:54 53.52524 -6.15861 5007 ft 263 kts 103°
2026-05-07 16:54 53.52182 -6.12795 5002 ft 272 kts 103°
2026-05-07 16:55 53.51815 -6.09622 4998 ft 278 kts 103°
2026-05-07 16:55 53.51466 -6.06475 4994 ft 269 kts 103°
2026-05-07 16:55 53.51107 -6.03353 4997 ft 275 kts 103°
2026-05-07 16:55 53.50744 -6.00201 4993 ft 274 kts 103°
2026-05-07 16:56 53.50369 -5.97015 4995 ft 278 kts 103°
2026-05-07 16:56 53.50000 -5.93825 4993 ft 277 kts 103°
2026-05-07 16:56 53.49281 -5.87562 4998 ft 274 kts 103°
2026-05-07 16:57 53.49093 -5.84375 4986 ft 275 kts 89°
2026-05-07 16:57 53.49369 -5.81214 5003 ft 276 kts 80°